星链-3003 (STARLINK-3003 )

导读

STARLINK-3003是美国太空探索技术公司星链(Starlink)卫星互联网计划的组成部分,于北京时间2021年6月30日发射,旨在为全球范围提供高速互联网接入服务,尤其覆盖偏远地区与网络基础设施薄弱区域,目前已随星链星座组网运行,持续为用户提供卫星互联网服务。

Basic Information
目录编号:
48879
目录名称:
STARLINK-3003
国际标识:
2021-059A
轨道中心:
EARTH
卫星名称:
星链-3003
卫星全名:
星链-3003 (STARLINK-3003 )
卫星状态:
已陨落 最后检测时间 2024-08-30
发射日期:
2021-06-30 UTC
国别 :
美国 (US)
星等 :
--
Orbit Information
数据来源 国际轨道数据
星历时间: 2024-08-30T15:35:58+0800
轨道信息已过期653天
半长轴: 6537.119km
偏心率: 0.0012559
轨道倾角: 97.634°
近地点辐角 257.612°
升交点赤经 12.014°
平近点角 241.968°
近地点: 150.774km
远地点: 167.194km
周期: 87.668分钟
每日圈数: 16.425675
Detailed Information
固有亮度:
5
最大亮度:
2.5
卫星平台:
Starlink v1.5
覆盖范围:
全球
运营商:
太空探索技术公司
运营商所在国:
美国
制造商(研发单位):
太空探索技术公司
制造商所在国:
美国
使用方式:
暂无
Satellite Introduction
星链(Starlink)计划是由太空探索技术公司(SpaceX)提出的一个巨型低轨卫星互联网星座项目,计划在2019年至2024年间在太空搭建由约1.2万颗卫星组成的“星链”网络,其中1584颗将部署在地球上空550千米处的近地轨道,并从2020年开始工作。该卫星仍在工作。